Weather History for Mammoth, CA

Change the Weather History Date:

Monday, January 6, 2014

  Actual Average Record
Temperature  
Mean Temperature 28 °F -  
Max Temperature 51 °F 35 °F 57 °F (2012)
Min Temperature 6 °F 20 °F -20 °F (2011)
Degree Days  
Heating Degree Days 36    
Moisture  
Dew Point 2 °F    
Average Humidity 39    
Maximum Humidity 73    
Minimum Humidity 13    
Precipitation  
Precipitation 0.00 in - - ()
Sea Level Pressure  
Sea Level Pressure 30.35 in    
Wind  
Wind Speed 1 mph (SE)    
Max Wind Speed 8 mph    
Max Gust Speed -    
Visibility 10 miles    
Events      
Averages and records for this station are not official NWS values.
T = Trace of Precipitation, MM = Missing Value Source: NWS Daily Summary

Daily Weather History Graph

Daily Weather History Graph

Search for Another Location

Airport:

Trip Planner

Search our weather history database for the weather conditions in past years. The results will help you decide how hot, cold, wet, or windy it might be!

Date:

Astronomy

Jan. 06, 2014 Rise Set
Actual Time 7:10 AM PST 4:52 PM PST
Civil Twilight 6:41 AM PST 5:21 PM PST
Nautical Twilight 6:09 AM PST 5:53 PM PST
Astronomical Twilight 5:37 AM PST 6:25 PM PST
Moon 10:36 AM PST (1/6) 11:22 PM PST (1/6)
Length of Visible Light 10h 39m
Length of Day
9h 41m
Waxing Crescent, 36% of the Moon is Illuminated
Jan 6
Waxing Crescent
Jan 7
First Quarter
Jan 15
Full
Jan 23
Last Quarter
Jan 30
New

Hourly Weather History & Observations

Time (PST) Temp. Windchill Dew Point Humidity Pressure Visibility Wind Dir Wind Speed Gust Speed Precip Events Conditions
12:15 AM 15.8 °F - 1.4 °F 53% 30.39 in 10.0 mi Calm Calm - N/A   Clear
12:35 AM 15.8 °F - 1.4 °F 53% 30.38 in 10.0 mi Calm Calm - N/A   Clear
12:55 AM 15.8 °F 10.2 °F 1.4 °F 53% 30.38 in 10.0 mi North 3.5 mph - N/A   Clear
1:15 AM 17.6 °F - 3.2 °F 53% 30.38 in 10.0 mi Calm Calm - N/A   Clear
1:35 AM 15.8 °F - 3.2 °F 58% 30.39 in 10.0 mi Calm Calm - N/A   Clear
1:55 AM 15.8 °F - 3.2 °F 58% 30.39 in 10.0 mi Calm Calm - N/A   Clear
2:15 AM 10.4 °F - -0.4 °F 62% 30.39 in 10.0 mi Calm Calm - N/A   Clear
2:35 AM 10.4 °F - 1.4 °F 67% 30.39 in 10.0 mi Calm Calm - N/A   Clear
2:55 AM 12.2 °F - 1.4 °F 62% 30.39 in 10.0 mi Calm Calm - N/A   Clear
3:15 AM 10.4 °F - -2.2 °F 57% 30.39 in 10.0 mi Calm Calm - N/A   Clear
3:35 AM 14.0 °F - 3.2 °F 62% 30.39 in 10.0 mi Calm Calm - N/A   Clear
3:55 AM 15.8 °F - 1.4 °F 53% 30.39 in 10.0 mi Calm Calm - N/A   Clear
4:15 AM 10.4 °F - -0.4 °F 62% 30.39 in 10.0 mi Calm Calm - N/A   Clear
4:35 AM 12.2 °F - 1.4 °F 62% 30.39 in 10.0 mi Calm Calm - N/A   Clear
4:55 AM 6.8 °F - -2.2 °F 67% 30.39 in 10.0 mi Calm Calm - N/A   Clear
5:15 AM 6.8 °F -0.1 °F -0.4 °F 72% 30.39 in 10.0 mi North 3.5 mph - N/A   Clear
5:35 AM 8.6 °F - 1.4 °F 73% 30.39 in 10.0 mi Calm Calm - N/A   Clear
5:55 AM 10.4 °F - 1.4 °F 67% 30.39 in 10.0 mi Calm Calm - N/A   Clear
6:15 AM 8.6 °F - 1.4 °F 73% 30.39 in 10.0 mi Calm Calm - N/A   Clear
6:35 AM 12.2 °F - 3.2 °F 67% 30.39 in 10.0 mi Calm Calm - N/A   Clear
6:55 AM 6.8 °F - -4.0 °F 61% 30.40 in 10.0 mi Calm Calm - N/A   Clear
7:15 AM 6.8 °F - -0.4 °F 72% 30.40 in 10.0 mi Calm Calm - N/A   Clear
7:35 AM 8.6 °F - 1.4 °F 73% 30.41 in 10.0 mi Calm Calm - N/A   Clear
7:55 AM 8.6 °F - -0.4 °F 67% 30.41 in 10.0 mi Calm Calm - N/A   Clear
8:15 AM 14.0 °F - 3.2 °F 62% 30.42 in 10.0 mi Calm Calm - N/A   Clear
8:35 AM 21.2 °F - 5.0 °F 50% 30.43 in 10.0 mi Calm Calm - N/A   Clear
8:55 AM 24.8 °F - 6.8 °F 46% 30.43 in 10.0 mi Calm Calm - N/A   Clear
9:15 AM 26.6 °F 22.6 °F 5.0 °F 40% 30.43 in 10.0 mi SE 3.5 mph - N/A   Unknown
9:35 AM 32.0 °F - 5.0 °F 32% 30.42 in 10.0 mi Calm Calm - N/A   Unknown
9:55 AM 33.8 °F - 5.0 °F 30% 30.42 in 10.0 mi Calm Calm - N/A   Unknown
10:15 AM 35.6 °F 31.7 °F 5.0 °F 28% 30.41 in 10.0 mi SE 4.6 mph - N/A   Unknown
10:35 AM 37.4 °F 33.8 °F 5.0 °F 26% 30.41 in 10.0 mi SE 4.6 mph - N/A   Unknown
10:55 AM 41.0 °F 38.0 °F 6.8 °F 24% 30.40 in 10.0 mi SSE 4.6 mph - N/A   Unknown
11:15 AM 42.8 °F 40.1 °F 5.0 °F 21% 30.38 in 10.0 mi SE 4.6 mph - N/A   Unknown
11:35 AM 44.6 °F 40.7 °F 5.0 °F 20% 30.36 in 10.0 mi SE 6.9 mph - N/A   Unknown
11:55 AM 46.4 °F 43.5 °F 3.2 °F 17% 30.36 in 10.0 mi SE 5.8 mph - N/A   Unknown
12:15 PM 48.2 °F - 3.2 °F 16% 30.35 in 10.0 mi SE 3.5 mph - N/A   Unknown
12:35 PM 50.0 °F - 3.2 °F 15% 30.34 in 10.0 mi SE 6.9 mph - N/A   Unknown
12:55 PM 50.0 °F - 3.2 °F 15% 30.33 in 7.0 mi SE 3.5 mph - N/A   Unknown
1:15 PM 50.0 °F - 3.2 °F 15% 30.32 in 7.0 mi SE 3.5 mph - N/A   Unknown
1:35 PM 51.8 °F - 1.4 °F 13% 30.31 in 7.0 mi Calm Calm - N/A   Unknown
1:55 PM 51.8 °F - 1.4 °F 13% 30.31 in 7.0 mi Calm Calm - N/A   Unknown
2:15 PM 51.8 °F - 1.4 °F 13% 30.31 in 10.0 mi Calm Calm - N/A   Unknown
2:35 PM 50.0 °F - 5.0 °F 16% 30.31 in 7.0 mi ESE 4.6 mph - N/A   Unknown
2:55 PM 50.0 °F - 3.2 °F 15% 30.31 in 7.0 mi ESE 6.9 mph - N/A   Unknown
3:15 PM 48.2 °F - 1.4 °F 15% 30.31 in 7.0 mi ESE 6.9 mph - N/A   Unknown
3:35 PM 50.0 °F - 3.2 °F 15% 30.30 in 7.0 mi ESE 6.9 mph - N/A   Unknown
3:55 PM 46.4 °F 42.4 °F 1.4 °F 16% 30.29 in 7.0 mi ESE 8.1 mph - N/A   Unknown
4:15 PM 46.4 °F 44.3 °F 1.4 °F 16% 30.29 in 10.0 mi SE 4.6 mph - N/A   Unknown
4:35 PM 44.6 °F 41.4 °F 1.4 °F 17% 30.29 in 7.0 mi ESE 5.8 mph - N/A   Unknown
4:55 PM 44.6 °F 41.4 °F 1.4 °F 17% 30.30 in 7.0 mi ESE 5.8 mph - N/A   Unknown
5:15 PM 41.0 °F 39.0 °F 3.2 °F 21% 30.30 in 7.0 mi SE 3.5 mph - N/A   Unknown
5:35 PM 35.6 °F - 1.4 °F 24% 30.30 in 7.0 mi Calm Calm - N/A   Unknown
5:55 PM 35.6 °F 32.8 °F 1.4 °F 24% 30.30 in 10.0 mi South 3.5 mph - N/A   Unknown
6:15 PM 39.2 °F - 3.2 °F 22% 30.30 in 10.0 mi Calm Calm - N/A   Unknown
6:35 PM 37.4 °F - 3.2 °F 24% 30.30 in 10.0 mi Calm Calm - N/A   Unknown
6:55 PM 35.6 °F - 3.2 °F 26% 30.30 in 10.0 mi Calm Calm - N/A   Unknown
7:15 PM 32.0 °F - 1.4 °F 27% 30.30 in 10.0 mi Calm Calm - N/A   Unknown
7:35 PM 32.0 °F - 1.4 °F 27% 30.30 in 10.0 mi Calm Calm - N/A   Unknown
7:55 PM 32.0 °F - 3.2 °F 30% 30.30 in 10.0 mi Calm Calm - N/A   Unknown
8:15 PM 26.6 °F 22.6 °F -0.4 °F 31% 30.31 in 10.0 mi WNW 3.5 mph - N/A   Unknown
8:35 PM 28.4 °F - 1.4 °F 31% 30.30 in 10.0 mi Calm Calm - N/A   Unknown
8:55 PM 24.8 °F - -0.4 °F 34% 30.31 in 10.0 mi Calm Calm - N/A   Unknown
9:15 PM 26.6 °F - 3.2 °F 37% 30.29 in 10.0 mi Calm Calm - N/A   Unknown
9:35 PM 24.8 °F - 1.4 °F 36% 30.30 in 10.0 mi Calm Calm - N/A   Unknown
9:55 PM 23.0 °F - 1.4 °F 39% 30.30 in 10.0 mi Calm Calm - N/A   Unknown
10:15 PM 26.6 °F 20.0 °F 1.4 °F 34% 30.30 in 10.0 mi North 5.8 mph - N/A   Unknown
10:35 PM 23.0 °F - 3.2 °F 43% 30.30 in 10.0 mi Calm Calm - N/A   Unknown
10:55 PM 24.8 °F - 3.2 °F 40% 30.29 in 10.0 mi Calm Calm - N/A   Unknown
11:15 PM 26.6 °F 21.2 °F 3.2 °F 37% 30.28 in 10.0 mi North 4.6 mph - N/A   Unknown
11:35 PM 32.0 °F 25.6 °F 3.2 °F 30% 30.27 in 10.0 mi SSE 6.9 mph - N/A   Unknown
11:55 PM 32.0 °F 24.8 °F 6.8 °F 35% 30.26 in 10.0 mi SSE 8.1 mph - N/A   Unknown